Change the Weather History Date:

Friday, December 6, 2013

  Actual Average Record
Temperature  
Mean Temperature 42 °F -  
Max Temperature 53 °F 42 °F 53 °F (1999)
Min Temperature 31 °F 33 °F 24 °F (2004)
Degree Days  
Heating Degree Days 23    
Moisture  
Dew Point 49 °F    
Average Humidity 96    
Maximum Humidity 100    
Minimum Humidity 73    
Precipitation  
Precipitation 0.04 in - - ()
Sea Level Pressure  
Sea Level Pressure 29.97 in    
Wind  
Wind Speed 16 mph ()    
Max Wind Speed 24 mph    
Max Gust Speed 30 mph    
Visibility 2.5 miles    
Events Rain    
Averages and records for this station are not official NWS values.
T = Trace of Precipitation, MM = Missing Value Source: Averaged Metar Reports

Daily Weather History Graph

Daily Weather History Graph

Search for Another Location

Airport or City:

Trip Planner

Search our weather history database for the weather conditions in past years. The results will help you decide how hot, cold, wet, or windy it might be!

Date:

Astronomy

Dec. 06, 2013 Rise Set
Actual Time 7:19 AM AST 4:22 PM AST
Civil Twilight 6:47 AM AST 4:54 PM AST
Nautical Twilight 6:11 AM AST 5:31 PM AST
Astronomical Twilight 5:36 AM AST 6:05 PM AST
Moon 10:17 AM AST (12/6) 8:53 PM AST (12/6)
Length of Visible Light 10h 07m
Length of Day
9h 02m
Waxing Crescent, 18% of the Moon is Illuminated
Dec 6
Waxing Crescent
Dec 9
First Quarter
Dec 17
Full
Dec 25
Last Quarter
Jan 1
New

Hourly Weather History & Observations

Time (AST) Temp. Windchill Dew Point Humidity Pressure Visibility Wind Dir Wind Speed Gust Speed Precip Events Conditions
12:00 AM 37.4 °F 28.9 °F 32.0 °F 81% 30.28 in 9.0 mi South 13.8 mph - N/A   Overcast
1:00 AM 39.2 °F 31.2 °F 33.8 °F 81% 30.26 in 9.0 mi South 13.8 mph - N/A   Overcast
2:00 AM 42 °F - 36 °F 73% 30.23 in 9 mi South 16.1 mph - -  
2:00 AM 42.8 °F 34.8 °F 35.6 °F 76% 30.23 in 9.0 mi South 17.3 mph - N/A   Mostly Cloudy
2:05 AM 42.8 °F 35.1 °F 35.6 °F 76% 30.23 in 9.0 mi South 16.1 mph - N/A   Scattered Clouds
3:00 AM 42.8 °F 35.8 °F 39.2 °F 87% 30.20 in 9.0 mi SSE 13.8 mph - N/A   Clear
4:00 AM 44.6 °F 38.8 °F 42.8 °F 93% 30.18 in 8.0 mi SSE 11.5 mph - N/A   Partly Cloudy
5:00 AM 47 °F - 43 °F 81% 30.15 in 9 mi SSE 12.7 mph - -  
5:00 AM 46.4 °F 40.7 °F 42.8 °F 87% 30.15 in 9.0 mi SSE 12.7 mph - N/A   Clear
6:00 AM 48.2 °F - 44.6 °F 87% 30.13 in 9.0 mi SSE 12.7 mph - N/A   Mostly Cloudy
6:51 AM 48.2 °F - 44.6 °F 87% 30.08 in 9.0 mi SSE 17.3 mph - N/A   Overcast
7:00 AM 48.2 °F - 44.6 °F 87% 30.09 in 7.0 mi SSE 13.8 mph - N/A   Overcast
7:12 AM 48.2 °F - 46.4 °F 93% 30.08 in 2.5 mi SSE 13.8 mph - N/A   Overcast
7:29 AM 48.2 °F - 46.4 °F 93% 30.09 in 4.0 mi South 15.0 mph - N/A   Overcast
7:33 AM 48.2 °F - 46.4 °F 93% 30.08 in 2.4 mi South 15.0 mph - N/A   Overcast
7:39 AM 48.2 °F - 46.4 °F 93% 30.08 in 2.1 mi SSE 17.3 mph - N/A   Light Drizzle
7:42 AM 48.2 °F - 46.4 °F 93% 30.07 in 2.1 mi SSE 16.1 mph - N/A   Light Drizzle
7:49 AM 48.2 °F - 48.2 °F 100% 30.07 in 2.5 mi SSE 15.0 mph - N/A   Light Drizzle
7:53 AM 48.2 °F - 48.2 °F 100% 30.08 in 2.5 mi SSE 15.0 mph - N/A Rain Light Rain
8:00 AM 49 °F - 47 °F 91% 30.07 in 5 mi SSE 16.1 mph - -   Unknown Precipitation
8:00 AM 48.2 °F - 46.4 °F 93% 30.07 in 5.0 mi SSE 18.4 mph - N/A Rain Light Rain
8:07 AM 48.2 °F - 48.2 °F 100% 30.07 in 5.0 mi SSE 17.3 mph - N/A   Overcast
8:23 AM 50.0 °F - 48.2 °F 94% 30.07 in 3.0 mi SSE 17.3 mph - N/A   Light Drizzle
8:28 AM 50.0 °F - 48.2 °F 94% 30.06 in 3.0 mi SSE 17.3 mph - N/A Rain Light Rain
8:43 AM 50.0 °F - 48.2 °F 94% 30.05 in 5.0 mi SSE 18.4 mph - N/A Rain Light Rain
8:48 AM 50.0 °F - 48.2 °F 94% 30.05 in 5.0 mi SSE 19.6 mph - N/A   Overcast
8:58 AM 50.0 °F - 48.2 °F 94% 30.05 in 5.0 mi SSE 17.3 mph - N/A   Overcast
9:00 AM 50.0 °F - 48.2 °F 94% 30.05 in 5.0 mi SSE 17.3 mph - N/A   Overcast
9:09 AM 50.0 °F - 48.2 °F 94% 30.04 in 5.0 mi SSE 17.3 mph - N/A   Overcast
9:13 AM 50.0 °F - 48.2 °F 94% 30.05 in 4.0 mi SSE 17.3 mph - N/A   Overcast
9:21 AM 50.0 °F - 48.2 °F 94% 30.04 in 3.0 mi South 20.7 mph - N/A Rain Light Rain
9:24 AM 50.0 °F - 48.2 °F 94% 30.04 in 2.4 mi SSE 20.7 mph - N/A   Overcast
9:47 AM 50.0 °F - 50.0 °F 100% 30.04 in 2.4 mi South 19.6 mph - N/A   Overcast
9:55 AM 50.0 °F - 50.0 °F 100% 30.03 in 2.5 mi South 19.6 mph 25.3 mph N/A   Overcast
10:00 AM 50.0 °F - 50.0 °F 100% 30.04 in 2.5 mi South 23.0 mph - N/A   Overcast
10:04 AM 51.8 °F - 51.8 °F 100% 30.03 in 2.5 mi South 24.2 mph 29.9 mph N/A   Overcast
10:07 AM 51.8 °F - 51.8 °F 100% 30.03 in 2.5 mi South 20.7 mph 29.9 mph N/A   Overcast
10:10 AM 51.8 °F - 51.8 °F 100% 30.03 in 3.0 mi South 20.7 mph 29.9 mph N/A   Overcast
10:23 AM 51.8 °F - 50.0 °F 94% 30.02 in 3.0 mi South 17.3 mph 24.2 mph N/A Rain Light Rain
10:25 AM 51.8 °F - 50.0 °F 94% 30.02 in 3.0 mi South 18.4 mph - N/A   Overcast
10:28 AM 51.8 °F - 50.0 °F 94% 30.02 in 3.0 mi South 18.4 mph - N/A Rain Light Rain
10:29 AM 51.8 °F - 50.0 °F 94% 30.02 in 2.5 mi South 18.4 mph - N/A Rain Light Rain
10:31 AM 51.8 °F - 50.0 °F 94% 30.02 in 2.5 mi South 20.7 mph - N/A Rain Light Rain
10:36 AM 51.8 °F - 51.8 °F 100% 30.02 in 2.5 mi South 18.4 mph 27.6 mph N/A   Overcast
10:39 AM 50.0 °F - 50.0 °F 100% 30.02 in 2.4 mi SW 15.0 mph 27.6 mph N/A   Overcast
10:46 AM 53.6 °F - 51.8 °F 94% 30.01 in 2.0 mi South 21.9 mph - N/A   Mostly Cloudy
10:47 AM 53.6 °F - 51.8 °F 94% 30.01 in 2.0 mi South 23.0 mph 29.9 mph N/A   Scattered Clouds
10:49 AM 53.6 °F - 51.8 °F 94% 30.01 in 2.2 mi South 20.7 mph 29.9 mph N/A   Mostly Cloudy
10:51 AM 51.8 °F - 51.8 °F 100% 30.01 in 2.5 mi South 18.4 mph 29.9 mph N/A   Overcast
11:00 AM 52 °F - 51 °F 97% 30.00 in 2 mi South 19.6 mph - -   Overcast
11:00 AM 51.8 °F - 51.8 °F 100% 30.00 in 2.5 mi South 21.9 mph - N/A   Overcast
11:07 AM 51.8 °F - 50.0 °F 94% 30.00 in 2.5 mi South 18.4 mph 24.2 mph N/A   Overcast
11:09 AM 51.8 °F - 51.8 °F 100% 30.00 in 2.5 mi SSW 16.1 mph 24.2 mph N/A   Overcast
11:11 AM 51.8 °F - 50.0 °F 94% 30.00 in 2.4 mi SSW 13.8 mph 23.0 mph N/A   Overcast
11:17 AM 51.8 °F - 50.0 °F 94% 29.99 in 2.4 mi South 19.6 mph - N/A   Overcast
11:30 AM 51.8 °F - 51.8 °F 100% 29.98 in 2.4 mi South 18.4 mph - N/A   Overcast
11:32 AM 51.8 °F - 51.8 °F 100% 29.98 in 2.4 mi South 20.7 mph - N/A   Overcast
11:34 AM 51.8 °F - 51.8 °F 100% 29.98 in 2.5 mi South 21.9 mph - N/A   Overcast
11:47 AM 51.8 °F - 51.8 °F 100% 29.97 in 1.8 mi SSW 19.6 mph - N/A   Overcast
11:51 AM 51.8 °F - 51.8 °F 100% 29.97 in 1.4 mi SSW 19.6 mph - N/A   Overcast
11:59 AM 51.8 °F - 51.8 °F 100% 29.96 in 1.0 mi SSW 19.6 mph - N/A   Overcast
12:00 PM 51.8 °F - 51.8 °F 100% 29.96 in 1.0 mi SSW 19.6 mph - N/A   Overcast
12:03 PM 51.8 °F - 51.8 °F 100% 29.95 in 0.6 mi SSW 18.4 mph - N/A   Overcast
12:25 PM 51.8 °F - 50.0 °F 94% 29.95 in 0.4 mi SSW 19.6 mph - N/A   Overcast
12:33 PM 51.8 °F - 50.0 °F 94% 29.94 in 0.1 mi SSW 18.4 mph - N/A   Overcast
1:00 PM 50.0 °F - 50.0 °F 100% 29.93 in 0.1 mi SSW 16.1 mph - N/A   Overcast
2:00 PM 49 °F - 49 °F 100% 29.91 in 0 mi SSW 17.3 mph - -   Overcast
2:00 PM 50.0 °F - 48.2 °F 94% 29.91 in 0.1 mi SSW 16.1 mph - N/A   Overcast
2:16 PM 50.0 °F - 50.0 °F 100% 29.90 in 0.5 mi SSW 19.6 mph - N/A   Overcast
2:25 PM 50.0 °F - 50.0 °F 100% 29.90 in 1.0 mi SSW 19.6 mph - N/A   Overcast
2:40 PM 50.0 °F - 50.0 °F 100% 29.89 in 1.6 mi SSW 18.4 mph - N/A   Overcast
2:52 PM 50.0 °F - 50.0 °F 100% 29.89 in 2.2 mi SSW 20.7 mph - N/A   Overcast
2:59 PM 50.0 °F - 50.0 °F 100% 29.89 in 2.4 mi SSW 20.7 mph - N/A   Overcast
3:00 PM 50.0 °F - 50.0 °F 100% 29.90 in 2.4 mi SSW 19.6 mph - N/A   Mostly Cloudy
3:18 PM 50.0 °F - 50.0 °F 100% 29.88 in 2.0 mi SSW 18.4 mph - N/A   Overcast
3:20 PM 50.0 °F - 50.0 °F 100% 29.88 in 2.0 mi SSW 18.4 mph - N/A   Overcast
3:33 PM 50.0 °F - 50.0 °F 100% 29.88 in 2.1 mi SSW 19.6 mph - N/A   Overcast
3:36 PM 50.0 °F - 50.0 °F 100% 29.88 in 2.1 mi SSW 18.4 mph - N/A   Mostly Cloudy
3:38 PM 50.0 °F - 50.0 °F 100% 29.88 in 2.2 mi SSW 20.7 mph - N/A   Mostly Cloudy
3:43 PM 50.0 °F - 50.0 °F 100% 29.87 in 2.2 mi SSW 19.6 mph - N/A   Mostly Cloudy
3:54 PM 51.8 °F - 50.0 °F 94% 29.87 in 2.1 mi SSW 21.9 mph - N/A   Overcast
3:59 PM 51.8 °F - 50.0 °F 94% 29.87 in 1.6 mi SSW 20.7 mph - N/A   Overcast
4:00 PM 51.8 °F - 51.8 °F 100% 29.88 in 1.6 mi SSW 19.6 mph - N/A   Overcast
4:05 PM 51.8 °F - 50.0 °F 94% 29.87 in 1.4 mi SSW 19.6 mph - N/A   Overcast
4:12 PM 51.8 °F - 51.8 °F 100% 29.87 in 1.0 mi SSW 21.9 mph - N/A   Overcast
4:17 PM 51.8 °F - 51.8 °F 100% 29.86 in 0.6 mi SSW 21.9 mph - N/A Rain Light Rain
4:41 PM 51.8 °F - 51.8 °F 100% 29.86 in 0.4 mi SSW 23.0 mph - N/A Rain Light Rain
4:49 PM 51.8 °F - 51.8 °F 100% 29.86 in 0.2 mi SSW 23.0 mph - N/A   Overcast
5:00 PM 52 °F - 52 °F 98% 29.87 in 0 mi SSW 21.9 mph - -   Overcast
5:00 PM 51.8 °F - 51.8 °F 100% 29.87 in 0.2 mi SSW 21.9 mph - N/A   Overcast
5:18 PM 51.8 °F - 51.8 °F 100% 29.87 in 0.2 mi SSW 21.9 mph - N/A Rain Light Rain
5:26 PM 51.8 °F - 51.8 °F 100% 29.87 in 0.4 mi SW 21.9 mph 27.6 mph N/A   Overcast
5:33 PM 51.8 °F - 51.8 °F 100% 29.86 in 0.5 mi SW 20.7 mph 27.6 mph N/A   Overcast
5:35 PM 51.8 °F - 51.8 °F 100% 29.86 in 0.4 mi SW 21.9 mph - N/A   Overcast
6:00 PM 51.8 °F - 51.8 °F 100% 29.86 in 0.2 mi SW 21.9 mph - N/A   Overcast
6:08 PM 51.8 °F - 51.8 °F 100% 29.86 in 0.2 mi SW 23.0 mph - N/A Rain Light Rain
6:10 PM 53.6 °F - 51.8 °F 94% 29.86 in 0.2 mi SW 23.0 mph - N/A   Overcast
6:35 PM 51.8 °F - 51.8 °F 100% 29.86 in 0.2 mi SW 20.7 mph - N/A Rain Light Rain
6:51 PM 51.8 °F - 51.8 °F 100% 29.86 in 0.4 mi WSW 21.9 mph - N/A   Overcast
6:53 PM 51.8 °F - 51.8 °F 100% 29.86 in 0.6 mi WSW 23.0 mph - N/A   Overcast
7:00 PM 51.8 °F - 51.8 °F 100% 29.87 in 0.5 mi WSW 20.7 mph 27.6 mph N/A   Overcast
7:01 PM 53.6 °F - 51.8 °F 94% 29.86 in 0.4 mi WSW 20.7 mph 27.6 mph N/A   Overcast
7:13 PM 51.8 °F - 51.8 °F 100% 29.86 in 0.8 mi West 17.3 mph 24.2 mph N/A   Overcast
7:16 PM 51.8 °F - 51.8 °F 100% 29.86 in 0.8 mi West 16.1 mph 24.2 mph N/A Rain Light Rain
8:00 PM 50 °F - 49 °F 96% 29.85 in 1 mi WSW 13.8 mph - -   Unknown Precipitation
8:00 PM 50.0 °F - 50.0 °F 100% 29.85 in 0.8 mi WSW 12.7 mph - N/A Rain Light Rain
8:20 PM 50.0 °F - 48.2 °F 94% 29.86 in 1.0 mi WSW 12.7 mph - N/A Rain Light Rain
8:27 PM 48.2 °F - 48.2 °F 100% 29.86 in 1.0 mi WSW 11.5 mph - N/A Rain Light Rain
8:34 PM 48.2 °F - 48.2 °F 100% 29.87 in 1.0 mi WSW 12.7 mph - N/A   Overcast
8:55 PM 50.0 °F - 48.2 °F 94% 29.87 in 1.1 mi West 10.4 mph - N/A   Overcast
9:00 PM 48.2 °F - 48.2 °F 100% 29.88 in 1.1 mi West 9.2 mph - N/A   Overcast
9:21 PM 48.2 °F - 48.2 °F 100% 29.87 in 1.0 mi West 11.5 mph - N/A   Overcast
9:26 PM 48.2 °F - 48.2 °F 100% 29.87 in 0.6 mi West 12.7 mph - N/A   Overcast
9:57 PM 48.2 °F - 48.2 °F 100% 29.87 in 0.5 mi West 10.4 mph - N/A Rain Light Rain
10:00 PM 48.2 °F - 48.2 °F 100% 29.87 in 0.5 mi West 11.5 mph - N/A Rain Light Rain
10:10 PM 48.2 °F - 48.2 °F 100% 29.87 in 0.4 mi West 12.7 mph - N/A Rain Light Rain
10:23 PM 48.2 °F - 48.2 °F 100% 29.86 in 0.4 mi West 9.2 mph - N/A   Overcast
11:00 PM 47 °F - 46 °F 97% 29.87 in 0 mi WNW 8.1 mph - -   Overcast
11:00 PM 46.4 °F 41.9 °F 46.4 °F 100% 29.87 in 0.4 mi WNW 9.2 mph - N/A   Overcast
11:14 PM 46.4 °F 40.7 °F 46.4 °F 100% 29.87 in 0.8 mi WNW 12.7 mph - N/A   Overcast
11:19 PM 46.4 °F 41.1 °F 46.4 °F 100% 29.88 in 1.5 mi WNW 11.5 mph - N/A   Overcast
11:35 PM 46.4 °F 41.5 °F 44.6 °F 93% 29.89 in 4.0 mi WNW 10.4 mph - N/A   Overcast
11:42 PM 46.4 °F 41.1 °F 44.6 °F 93% 29.88 in 5.0 mi WNW 11.5 mph - N/A   Overcast